373P/Rinner (2026)

Japanese version
Home page
Updated on August 11, 2025

---------------------------------------------------------------------

* Profile

* Orbital Elements

Epoch 2026 Aug. 28.0 TT = JDT 2461280.5
T 2026 Sept. 5.02901 TT                                 MPCW
q   2.3009991            (2000.0)            P               Q
n   0.13320366     Peri.  221.16067     -0.03930106     -0.98148733
a   3.7971574      Node   231.94629     +0.96775678     +0.00932286
e   0.3940206      Incl.   13.77170     +0.24880161     -0.19130004
P   7.40
From 782 observations 2011 Nov. 28-2019 Apr. 1, mean residual 0".6.

* Magnitudes Graph

        m1 = 5.0 + 5 log d + 30.0 log r

---------------------------------------------------------------------

The orbital elements are published on M.P.E.C. 2019-J142.
The magnitudes graphs are made with Comet for Windows.

---------------------------------------------------------------------

Copyright(C) Seiichi Yoshida (comet@aerith.net). All rights reserved.